DLH6AW LEAL-GMMW

Flight info

Callsign DLH6AW
Flight time 0h 46m
Altitude 31000
Route RESTU DCT AMR DCT ARI
Aircraft A321/M-SDE3FGHIRWY/LB1

Departure

Time 2026-05-07 17:22
Airport Alicante-Elche Miguel Hernández Airport (LEAL)

Arrival

Time 2026-05-07 18:09
Airport Nador Al Aaroui International Airport (GMMW)
Time Latitude Longitude Altitude Speed Heading
2026-05-07 16:52 38.28540 -0.55347 89 ft 0 kts 10°
2026-05-07 17:11 38.28530 -0.55349 89 ft 3 kts 10°
2026-05-07 17:11 38.28513 -0.55353 89 ft 3 kts 10°
2026-05-07 17:11 38.28495 -0.55357 80 ft 3 kts 10°
2026-05-07 17:12 38.28477 -0.55361 76 ft 3 kts 10°
2026-05-07 17:12 38.28459 -0.55361 93 ft 3 kts 319°
2026-05-07 17:12 38.28452 -0.55353 90 ft 0 kts 289°
2026-05-07 17:15 38.28457 -0.55371 91 ft 7 kts 289°
2026-05-07 17:16 38.28475 -0.55451 94 ft 10 kts 281°
2026-05-07 17:16 38.28485 -0.55519 97 ft 6 kts 280°
2026-05-07 17:16 38.28485 -0.55574 98 ft 5 kts 249°
2026-05-07 17:16 38.28455 -0.55600 96 ft 5 kts 201°
2026-05-07 17:17 38.28419 -0.55609 99 ft 5 kts 189°
2026-05-07 17:17 38.28387 -0.55621 101 ft 5 kts 211°
2026-05-07 17:17 38.28376 -0.55672 101 ft 8 kts 272°
2026-05-07 17:17 38.28389 -0.55769 102 ft 14 kts 280°
2026-05-07 17:18 38.28410 -0.55918 106 ft 20 kts 280°
2026-05-07 17:18 38.28434 -0.56092 108 ft 18 kts 280°
2026-05-07 17:18 38.28455 -0.56246 109 ft 16 kts 279°
2026-05-07 17:18 38.28477 -0.56400 115 ft 17 kts 280°
2026-05-07 17:19 38.28499 -0.56565 117 ft 15 kts 279°
2026-05-07 17:19 38.28521 -0.56718 123 ft 20 kts 280°
2026-05-07 17:19 38.28546 -0.56895 131 ft 12 kts 280°
2026-05-07 17:19 38.28562 -0.57011 137 ft 15 kts 280°
2026-05-07 17:20 38.28584 -0.57160 143 ft 19 kts 280°
2026-05-07 17:20 38.28604 -0.57307 149 ft 13 kts 279°
2026-05-07 17:20 38.28604 -0.57397 152 ft 8 kts 247°
2026-05-07 17:20 38.28544 -0.57431 154 ft 13 kts 189°
2026-05-07 17:21 38.28483 -0.57442 155 ft 14 kts 182°
2026-05-07 17:21 38.28427 -0.57322 149 ft 24 kts 98°
2026-05-07 17:21 38.28363 -0.56857 129 ft 91 kts 100°
2026-05-07 17:21 38.28211 -0.55774 104 ft 155 kts 99°
2026-05-07 17:22 38.27991 -0.54248 342 ft 183 kts 99°
2026-05-07 17:22 38.27739 -0.52670 1053 ft 183 kts 101°
2026-05-07 17:22 38.27473 -0.51079 1673 ft 190 kts 100°
2026-05-07 17:22 38.27187 -0.49345 2038 ft 208 kts 99°
2026-05-07 17:23 38.26876 -0.47444 2273 ft 231 kts 100°
2026-05-07 17:23 38.26542 -0.45403 2944 ft 237 kts 99°
2026-05-07 17:23 38.26206 -0.43344 3758 ft 238 kts 99°
2026-05-07 17:23 38.25867 -0.41266 4548 ft 241 kts 99°
2026-05-07 17:24 38.25527 -0.39177 5300 ft 243 kts 99°
2026-05-07 17:24 38.25182 -0.37051 5861 ft 249 kts 100°
2026-05-07 17:24 38.24801 -0.34887 5997 ft 260 kts 107°
2026-05-07 17:24 38.23836 -0.32896 6023 ft 271 kts 135°
2026-05-07 17:25 38.22184 -0.31725 6068 ft 280 kts 166°
2026-05-07 17:25 38.20228 -0.31797 6730 ft 286 kts 197°
2026-05-07 17:25 38.18536 -0.33072 7500 ft 285 kts 228°
2026-05-07 17:25 38.17574 -0.35245 8267 ft 284 kts 254°
2026-05-07 17:26 38.17037 -0.37662 9058 ft 285 kts 255°
2026-05-07 17:26 38.16515 -0.40096 9846 ft 286 kts 255°
2026-05-07 17:26 38.15987 -0.42576 10270 ft 301 kts 255°
2026-05-07 17:26 38.15417 -0.45250 10440 ft 324 kts 255°
2026-05-07 17:27 38.14800 -0.48108 10589 ft 347 kts 255°
2026-05-07 17:27 38.14147 -0.51119 11027 ft 357 kts 255°
2026-05-07 17:27 38.13481 -0.54177 11723 ft 360 kts 255°
2026-05-07 17:27 38.12814 -0.57224 12443 ft 363 kts 255°
2026-05-07 17:28 38.12135 -0.60319 13116 ft 365 kts 254°
2026-05-07 17:28 38.11450 -0.63429 13698 ft 368 kts 254°
2026-05-07 17:28 38.10757 -0.66581 14178 ft 371 kts 254°
2026-05-07 17:28 38.10061 -0.69742 14743 ft 373 kts 254°
2026-05-07 17:29 38.09361 -0.72920 15317 ft 374 kts 254°
2026-05-07 17:29 38.08656 -0.76116 15847 ft 377 kts 254°
2026-05-07 17:29 38.07944 -0.79336 16381 ft 380 kts 254°
2026-05-07 17:29 38.07230 -0.82569 16908 ft 382 kts 254°
2026-05-07 17:30 38.06509 -0.85824 17432 ft 384 kts 254°
2026-05-07 17:30 38.05784 -0.89087 17957 ft 385 kts 254°
2026-05-07 17:30 38.05054 -0.92369 18447 ft 387 kts 254°
2026-05-07 17:30 38.04322 -0.95655 18883 ft 389 kts 254°
2026-05-07 17:31 38.03585 -0.98959 19322 ft 390 kts 254°
2026-05-07 17:31 38.02843 -1.02281 19771 ft 392 kts 255°
2026-05-07 17:31 38.02110 -1.05565 20212 ft 393 kts 255°
2026-05-07 17:31 38.01363 -1.08909 20671 ft 395 kts 255°
2026-05-07 17:32 38.00610 -1.12265 21106 ft 396 kts 255°
2026-05-07 17:32 37.99845 -1.15674 21552 ft 398 kts 255°
2026-05-07 17:32 37.99098 -1.19011 22010 ft 399 kts 255°
2026-05-07 17:32 37.98327 -1.22445 22467 ft 400 kts 255°
2026-05-07 17:33 37.97560 -1.25839 22890 ft 402 kts 255°
2026-05-07 17:33 37.96788 -1.29247 23300 ft 403 kts 256°
2026-05-07 17:33 37.96015 -1.32664 23688 ft 405 kts 256°
2026-05-07 17:33 37.95240 -1.36095 24045 ft 405 kts 256°
2026-05-07 17:34 37.94460 -1.39528 24405 ft 406 kts 256°
2026-05-07 17:34 37.93682 -1.42954 24881 ft 404 kts 257°
2026-05-07 17:34 37.92905 -1.46370 25294 ft 403 kts 257°
2026-05-07 17:34 37.92083 -1.49765 25669 ft 405 kts 252°
2026-05-07 17:35 37.90816 -1.52984 25987 ft 413 kts 242°
2026-05-07 17:35 37.89020 -1.55867 26329 ft 422 kts 232°
2026-05-07 17:35 37.86781 -1.58265 26629 ft 434 kts 221°
2026-05-07 17:35 37.84128 -1.60178 26865 ft 442 kts 215°
2026-05-07 17:36 37.81397 -1.61983 27146 ft 444 kts 215°
2026-05-07 17:36 37.78652 -1.63791 27414 ft 445 kts 215°
2026-05-07 17:36 37.75903 -1.65600 27686 ft 447 kts 216°
2026-05-07 17:36 37.73139 -1.67418 27967 ft 448 kts 216°
2026-05-07 17:37 37.70369 -1.69239 28181 ft 449 kts 216°
2026-05-07 17:37 37.67607 -1.71058 28538 ft 447 kts 216°
2026-05-07 17:37 37.64850 -1.72874 28859 ft 446 kts 216°
2026-05-07 17:37 37.62105 -1.74684 29197 ft 445 kts 216°
2026-05-07 17:38 37.59361 -1.76493 29521 ft 444 kts 217°
2026-05-07 17:38 37.56625 -1.78296 29837 ft 443 kts 217°
2026-05-07 17:38 37.53895 -1.80093 30128 ft 442 kts 217°
2026-05-07 17:38 37.51166 -1.81885 30407 ft 441 kts 217°
2026-05-07 17:39 37.48445 -1.83668 30693 ft 440 kts 217°
2026-05-07 17:39 37.45727 -1.85449 30872 ft 440 kts 217°
2026-05-07 17:39 37.40355 -1.88959 30943 ft 431 kts 217°
2026-05-07 17:40 37.35042 -1.92423 30936 ft 430 kts 216°
2026-05-07 17:40 37.29732 -1.95891 30937 ft 430 kts 216°
2026-05-07 17:41 37.24422 -1.99354 30942 ft 429 kts 216°
2026-05-07 17:41 37.19120 -2.02814 30908 ft 429 kts 216°
2026-05-07 17:42 37.13823 -2.06265 30925 ft 429 kts 216°
2026-05-07 17:42 37.08550 -2.09690 30928 ft 430 kts 216°
2026-05-07 17:43 37.03241 -2.13120 30943 ft 429 kts 216°
2026-05-07 17:43 36.97924 -2.16538 30935 ft 429 kts 216°
2026-05-07 17:44 36.92611 -2.19949 30927 ft 429 kts 215°
2026-05-07 17:44 36.87295 -2.23368 30929 ft 429 kts 215°
2026-05-07 17:45 36.81828 -2.26464 30929 ft 439 kts 205°
2026-05-07 17:45 36.75923 -2.28536 30928 ft 441 kts 204°
2026-05-07 17:46 36.70010 -2.30570 30892 ft 440 kts 203°
2026-05-07 17:46 36.64106 -2.32612 30912 ft 440 kts 204°
2026-05-07 17:47 36.58217 -2.34655 30926 ft 439 kts 204°
2026-05-07 17:47 36.52360 -2.36684 30931 ft 439 kts 204°
2026-05-07 17:48 36.46478 -2.38719 30914 ft 439 kts 204°
2026-05-07 17:48 36.43555 -2.39727 30429 ft 436 kts 203°
2026-05-07 17:48 36.40618 -2.40739 29800 ft 433 kts 203°
2026-05-07 17:49 36.37725 -2.41732 29203 ft 428 kts 203°
2026-05-07 17:49 36.34863 -2.42716 28615 ft 423 kts 203°
2026-05-07 17:49 36.32042 -2.43689 28028 ft 419 kts 203°
2026-05-07 17:49 36.29236 -2.44658 27418 ft 419 kts 203°
2026-05-07 17:50 36.26421 -2.45629 26799 ft 421 kts 203°
2026-05-07 17:50 36.23590 -2.46603 26166 ft 423 kts 202°
2026-05-07 17:50 36.20743 -2.47583 25481 ft 425 kts 202°
2026-05-07 17:50 36.17894 -2.48559 24836 ft 424 kts 202°
2026-05-07 17:51 36.15065 -2.49526 24181 ft 421 kts 202°
2026-05-07 17:51 36.12247 -2.50489 23525 ft 418 kts 202°
2026-05-07 17:51 36.09452 -2.51444 22801 ft 414 kts 202°
2026-05-07 17:51 36.06695 -2.52382 22179 ft 409 kts 202°
2026-05-07 17:52 36.03968 -2.53310 21537 ft 404 kts 202°
2026-05-07 17:52 36.01275 -2.54229 20926 ft 400 kts 202°
2026-05-07 17:52 35.98605 -2.55142 20306 ft 396 kts 202°
2026-05-07 17:52 35.95963 -2.56044 19701 ft 393 kts 202°
2026-05-07 17:53 35.93340 -2.56940 19110 ft 390 kts 202°
2026-05-07 17:53 35.90736 -2.57829 18528 ft 386 kts 202°
2026-05-07 17:53 35.88155 -2.58706 17921 ft 383 kts 201°
2026-05-07 17:53 35.85599 -2.59576 17373 ft 380 kts 201°
2026-05-07 17:54 35.83091 -2.60430 16836 ft 377 kts 201°
2026-05-07 17:54 35.80575 -2.61286 16320 ft 374 kts 201°
2026-05-07 17:54 35.78072 -2.62138 15803 ft 372 kts 200°
2026-05-07 17:54 35.75555 -2.62991 15291 ft 369 kts 200°
2026-05-07 17:55 35.73112 -2.63817 14780 ft 367 kts 200°
2026-05-07 17:55 35.70656 -2.64645 14263 ft 364 kts 199°
2026-05-07 17:55 35.68214 -2.65469 13728 ft 362 kts 199°
2026-05-07 17:55 35.65797 -2.66285 13156 ft 358 kts 199°
2026-05-07 17:56 35.63402 -2.67094 12612 ft 355 kts 199°
2026-05-07 17:56 35.61037 -2.67893 12069 ft 351 kts 199°
2026-05-07 17:56 35.58691 -2.68683 11517 ft 347 kts 198°
2026-05-07 17:56 35.56374 -2.69464 10986 ft 343 kts 198°
2026-05-07 17:57 35.54130 -2.70222 10836 ft 326 kts 199°
2026-05-07 17:57 35.52708 -2.70700 10744 ft 315 kts 199°
2026-05-07 17:57 35.49966 -2.71618 10580 ft 295 kts 199°
2026-05-07 17:57 35.48022 -2.72271 10390 ft 285 kts 199°
2026-05-07 17:58 35.46132 -2.72909 10099 ft 278 kts 199°
2026-05-07 17:58 35.44284 -2.73533 9866 ft 273 kts 199°
2026-05-07 17:58 35.42453 -2.74152 9740 ft 272 kts 199°
2026-05-07 17:58 35.40632 -2.74767 9606 ft 272 kts 199°
2026-05-07 17:59 35.38808 -2.75381 9474 ft 271 kts 199°
2026-05-07 17:59 35.36988 -2.75994 9340 ft 271 kts 199°
2026-05-07 17:59 35.35164 -2.76607 9076 ft 273 kts 199°
2026-05-07 17:59 35.33330 -2.77151 8743 ft 270 kts 190°
2026-05-07 18:00 35.31433 -2.77241 8612 ft 274 kts 185°
2026-05-07 18:00 35.29533 -2.77294 8484 ft 274 kts 185°
2026-05-07 18:00 35.27646 -2.77342 8359 ft 274 kts 185°
2026-05-07 18:00 35.25738 -2.77391 8044 ft 275 kts 185°
2026-05-07 18:01 35.23815 -2.77440 7565 ft 277 kts 185°
2026-05-07 18:01 35.21895 -2.77487 7124 ft 276 kts 184°
2026-05-07 18:01 35.19972 -2.77535 6769 ft 273 kts 183°
2026-05-07 18:01 35.18076 -2.77582 6379 ft 273 kts 183°
2026-05-07 18:02 35.14299 -2.77673 5545 ft 271 kts 182°
2026-05-07 18:02 35.12410 -2.77716 5103 ft 272 kts 183°
2026-05-07 18:02 35.10518 -2.77757 4662 ft 273 kts 181°
2026-05-07 18:03 35.08619 -2.77797 4218 ft 273 kts 181°
2026-05-07 18:03 35.07365 -2.77824 4028 ft 270 kts 181°
2026-05-07 18:03 35.05543 -2.77962 3979 ft 253 kts 194°
2026-05-07 18:03 35.04022 -2.78803 4007 ft 231 kts 218°
2026-05-07 18:04 35.03014 -2.80180 3996 ft 205 kts 242°
2026-05-07 18:04 35.02554 -2.81661 4020 ft 170 kts 260°
2026-05-07 18:04 35.02330 -2.82988 4002 ft 153 kts 261°
2026-05-07 18:04 35.02116 -2.84227 3744 ft 148 kts 261°
2026-05-07 18:05 35.01906 -2.85457 3347 ft 149 kts 262°
2026-05-07 18:05 35.01694 -2.86698 2977 ft 149 kts 264°
2026-05-07 18:05 35.01482 -2.87932 2708 ft 147 kts 262°
2026-05-07 18:05 35.01267 -2.89181 2726 ft 152 kts 262°
2026-05-07 18:06 35.01075 -2.90454 2567 ft 153 kts 264°
2026-05-07 18:06 35.00892 -2.91734 2305 ft 155 kts 263°
2026-05-07 18:06 35.00664 -2.93012 2093 ft 153 kts 262°
2026-05-07 18:06 35.00442 -2.94272 1858 ft 151 kts 261°
2026-05-07 18:07 35.00181 -2.95512 1629 ft 151 kts 261°
2026-05-07 18:07 34.99964 -2.96769 1423 ft 153 kts 263°
2026-05-07 18:07 34.99741 -2.98038 1214 ft 152 kts 265°
2026-05-07 18:07 34.99536 -2.99319 905 ft 155 kts 259°
2026-05-07 18:08 34.99292 -3.00618 727 ft 156 kts 261°
2026-05-07 18:08 34.99078 -3.01909 590 ft 152 kts 258°
2026-05-07 18:08 34.98894 -3.02966 592 ft 96 kts 259°
2026-05-07 18:08 34.98771 -3.03688 600 ft 73 kts 258°
2026-05-07 18:09 34.98692 -3.04147 601 ft 35 kts 257°
2026-05-07 18:09 34.98680 -3.04320 602 ft 15 kts 284°
2026-05-07 18:09 34.98664 -3.04370 603 ft 6 kts 170°
2026-05-07 18:09 34.98657 -3.04318 602 ft 9 kts 76°
2026-05-07 18:10 34.98679 -3.04215 601 ft 17 kts 78°
2026-05-07 18:10 34.98712 -3.04024 601 ft 30 kts 78°
2026-05-07 18:10 34.98764 -3.03732 600 ft 38 kts 78°
2026-05-07 18:10 34.98819 -3.03411 598 ft 38 kts 78°
2026-05-07 18:11 34.98865 -3.03146 595 ft 27 kts 78°
2026-05-07 18:11 34.98896 -3.02971 592 ft 16 kts 75°
2026-05-07 18:11 34.98970 -3.02908 592 ft 8 kts 357°
2026-05-07 18:11 34.99027 -3.02921 593 ft 9 kts 348°
2026-05-07 18:12 34.99095 -3.02938 593 ft 11 kts 348°
2026-05-07 18:12 34.99165 -3.02920 592 ft 12 kts 64°
2026-05-07 18:12 34.99205 -3.02848 592 ft 10 kts 15°
2026-05-07 18:12 34.99244 -3.02846 592 ft 4 kts 354°
2026-05-07 18:13 34.99252 -3.02848 592 ft 0 kts 351°